{"data":{"norad_id":83934,"intl_designator":"","name":"UNKNOWN","alt_names":[],"object_type":"UNKNOWN","status":"UNKNOWN","operator":null,"country":null,"launch_date":null,"launch_site_code":null,"launch_vehicle":null,"mission":null,"orbit_class":"UNKNOWN","rcs_meters":null,"size_class":null,"mass_kg":null,"dimensions":null,"purposes":[],"wikipedia_slug":null,"has_3d_model":false,"image_url":null,"decayed_at":null,"tle_current":{"epoch":"2026-09-18T01:19:58.205856Z","epoch_age_seconds":229557,"freshness":"STALE","line1":"1 83934U          26261.05553479 -.00000241  00000+0  00000+0 0  9998","line2":"2 83934   5.1635 295.8559 0236355 278.0478  98.5893  1.02663162 48159","mean_motion":1.02663162,"eccentricity":0.0236355,"inclination_deg":5.1635,"raan_deg":295.8559,"arg_perigee_deg":278.0478,"mean_anomaly_deg":98.5893,"bstar":0,"rev_number":4815,"period_min":1402.6452838069,"perigee_km":34148.204289313,"apogee_km":36110.300083545,"semimajor_km":41507.389186429,"source":"CELESTRAK","updated_at":"2026-09-20T09:00:32.441924Z"}}}